Hourly Data Report for October 23, 2014

All times are specified in Local Standard Time (LST). Add 1 hour to adjust for Daylight Saving Time where and when it is observed.

BATHURST A
NEW BRUNSWICK

47°37'47.000" N
65°44'20.000" W
58.80 m
8100505
71574
ZBF

Download Data

Hourly Data (October 2014)
Hourly Data Report for October 23, 2014
Temp Definition
°C
Dew Point Temp Definition
°C
Rel Hum Definition
%
Wind Dir Definition
10's deg

Wind Spd Definition
km/h
Visibility Definition
km
Stn Press Definition
kPa
Hmdx Definition


Wind Chill Definition


Weather Definition


TIME
00:00 Legend Double Dagger 5.7 3.4 85 6 17 24.1 102.26     LegendNANA
01:00 Legend Double Dagger 6.0 3.9 86 6 17 24.1 102.21     LegendNANA
02:00 Legend Double Dagger 6.0 4.0 87 5 14 24.1 102.14     Cloudy
03:00 Legend Double Dagger 6.0 4.0 87 5 19 24.1 102.07     LegendNANA
04:00 Legend Double Dagger 5.9 4.1 88 4 13 24.1 102.04     LegendNANA
05:00 Legend Double Dagger 6.0 4.2 88 6 12 24.1 102.01     Cloudy
06:00 Legend Double Dagger 6.0 4.2 88 5 15 24.1 101.96     LegendNANA
07:00 Legend Double Dagger 5.9 4.1 88 5 16 16.1 101.94     LegendNANA
08:00 Legend Double Dagger 5.9 4.1 88 6 17 24.1 101.92     Cloudy
09:00 Legend Double Dagger 5.8 4.3 90 5 23 8.1 101.87     Drizzle,Fog
10:00 Legend Double Dagger 5.9 4.6 91 5 21 8.1 101.86     Drizzle,Fog
11:00 Legend Double Dagger 6.1 4.3 88 5 21 12.9 101.80     Drizzle
12:00 Legend Double Dagger 6.5 4.2 85 5 16 19.3 101.76     LegendNANA
13:00 Legend Double Dagger 6.4 4.4 87 5 17 19.3 101.65     Drizzle
14:00 Legend Double Dagger 6.3 4.1 86 6 17 19.3 101.58     Cloudy
15:00 Legend Double Dagger 6.5 4.3 86 4 17 24.1 101.52     LegendNANA
16:00 Legend Double Dagger 6.3 4.3 87 6 13 24.1 101.46     LegendNANA
17:00 Legend Double Dagger 6.2 3.9 85 6 12 24.1 101.39     Cloudy
18:00 Legend Double Dagger 6.0 4.5 90 4 15 24.1 101.34     LegendNANA
19:00 Legend Double Dagger 6.1 4.4 89 5 18 24.1 101.30     LegendNANA
20:00 Legend Double Dagger 6.1 4.3 88 5 16 24.1 101.23     Cloudy
21:00 Legend Double Dagger 6.0 3.7 85 6 13 24.1 101.18     LegendNANA
22:00 Legend Double Dagger 6.3 3.5 82 6 15 24.1 101.13     LegendNANA
23:00 Legend Double Dagger 6.4 3.4 81 6 17 24.1 101.08     Cloudy

Notes on Data Quality.

Legend

  • E = Estimated
  • M = Missing
  • NA = Not Available
  • ‡ = Partner data that is not subject to review by the National Climate Archives
Date modified: